Flag for Germany Weather past 2 weeks in Konstanz, Baden-Württemberg, Germany

Now
42 °F

Overcast.


Feels Like: 36 °F
Forecast: 27 / 49 °F
Wind: 9 mph from West

Location: Konstanz

Current Time: Apr 2, 2015 at 7:08:28 AM

Latest Report: Apr 2, 2015 at 6:00 AM


Visibility: 25 mi

Pressure: 30.12 "Hg

Humidity: 64%

Dew point: 30 °F

Location of KonstanzLocation

Historic Weather in Konstanz — Graph

°F

Konstanz temperature yesterday

Maximum temperature yesterday: 47 °F (at 1:00 AM)
Minimum temperature yesterday: 36 °F (at 8:00 AM)
Average temperature yesterday: 41 °F

Past Weeks' High & Low Weather Summary

 TemperatureHumidityPressure
High64 °F (Mar 18, 4:00 PM)100% (Mar 24, 6:00 AM)30.31 "Hg (Mar 24, 6:00 AM)
Low33 °F (Mar 24, 7:00 AM)31% (Mar 20, 5:00 PM)29.56 "Hg (Mar 25, 2:00 PM)
Average46 °F72%30.00 "Hg
* Reported Mar 18 4:00 AM — Apr 2 5:00 AM, Konstanz, Weather by CustomWeather, © 2015

Note: Actual official high and low records may vary slightly from our data, if they occured in-between our weather recording intervals... More about our weather records

Advertising

Konstanz weather history for previous 24 hours

 ConditionsComfort  
Time TempWeatherWind HumidityBarometerVisibility
5:00 AM
Thu, Apr 2
41 °FLight freezing rain. Overcast.9 mph66%30.15 "Hg40 mi
4:00 AM41 °FQuite cool.6 mph66%30.19 "Hg37 mi
3:00 AM41 °FFog.6 mph68%30.22 "Hg40 mi
2:00 AM41 °FQuite cool.6 mph68%30.25 "Hg40 mi
1:00 AM41 °FQuite cool.5 mph66%30.28 "Hg40 mi
12:00 AM41 °FQuite cool.6 mph62%30.28 "Hg43 mi
11:00 PM
Wed, Apr 1
42 °FQuite cool.6 mph60%30.30 "Hg40 mi
10:00 PM41 °FQuite cool.5 mph61%30.30 "Hg43 mi
9:00 PM41 °FPassing clouds.5 mph65%30.29 "Hg28 mi
8:00 PM41 °FOvercast.6 mph68%30.27 "Hg28 mi
7:00 PM41 °FSprinkles. Overcast.8 mph65%30.26 "Hg17 mi
6:00 PM44 °FPartly sunny.7 mph59%30.23 "Hg19 mi
5:00 PM44 °FPartly sunny.7 mph64%30.21 "Hg25 mi
4:00 PM43 °FOvercast.5 mph62%30.20 "Hg11 mi
3:00 PM44 °FOvercast.7 mph56%30.21 "Hg28 mi
2:00 PM39 °FPartly sunny.3 mph85%30.24 "Hg28 mi
1:00 PM38 °FSleet. Low clouds.5 mph80%30.23 "Hg3 mi
12:00 PM39 °FLow clouds.6 mph82%30.22 "Hg19 mi
11:00 AM41 °FOvercast.8 mph74%30.21 "Hg25 mi
10:00 AM38 °FLow clouds.7 mph85%30.21 "Hg22 mi
9:00 AM37 °FLight rain. Low clouds.5 mph89%30.19 "Hg7 mi
8:00 AM36 °FLight rain. Low clouds.3 mph85%30.16 "Hg19 mi
7:00 AM39 °FPassing clouds.7 mph79%30.10 "Hg22 mi
Weather by CustomWeather, © 2015

See weather overviewHow to use our weather pages